Regional Weather Roundup
Issued by NWS Charleston, WV

Home | Current Version | Previous Version | Text Only | Print | Product List | Glossary Off
Versions: 1 2 3 4 5 6 7 8 9 10 11 12 13 14 15 16 17 18 19 20 21 22 23 24 25 26 27 28 29 30 31 32 33 34 35 36 37 38 39 40 41 42 43 44 45 46 47 48 49 50

000
ASUS41 KRLX 242110
RWRRLX
West Virginia Regional Weather Roundup
National Weather Service Charleston WV
500 PM EDT FRI APR 24 2015

Note: "fair" indicates few or no clouds below 12,000 feet with no
significant weather and/or obstructions to visibility.

WVZ003-242200-
Northern Panhandle of West Virginia

CITY           SKY/WX    TMP DP  RH WIND       PRES   REMARKS
WHEELING       SUNNY     55  23  28 W13G20    29.99F
$$

WVZ009-242200-
Northwest West Virginia

CITY           SKY/WX    TMP DP  RH WIND       PRES   REMARKS
PARKERSBURG    MOSUNNY   61  20  20 NW10      30.04F
$$

WVZ006-242200-
Western West Virginia

CITY           SKY/WX    TMP DP  RH WIND       PRES   REMARKS
HUNTINGTON     PTSUNNY   60  21  22 VRB5      30.02F
$$

WVZ015-242200-
West Central West Virginia

CITY           SKY/WX    TMP DP  RH WIND       PRES   REMARKS
CHARLESTON     PTSUNNY   59  17  19 VRB3      30.04F
$$

WVZ022-031-242200-
North Central West Virginia

CITY           SKY/WX    TMP DP  RH WIND       PRES   REMARKS
CLARKSBURG     SUNNY     56  22  26 W10       30.00F
MORGANTOWN     SUNNY     57  18  21 VRB6      30.00F
$$

WVZ025-035-042-045-242200-
Southern West Virginia

CITY           SKY/WX    TMP DP  RH WIND       PRES   REMARKS
BECKLEY        PTSUNNY   56  15  20 NW10      30.02S
LOGAN            N/A     59  18  20 VRB5      29.99F
BLUEFIELD      PTSUNNY   60  11  14 W13       30.02S
LEWISBURG      MOSUNNY   58  10  14 W9G17     30.00R
$$

WVZ047-242200-
Northern Mountains of West Virginia

CITY           SKY/WX    TMP DP  RH WIND       PRES   REMARKS
ELKINS         SUNNY     53  18  25 W10G20    30.00F
$$

WVZ052-242200-
Eastern Panhandle of West Virginia

CITY           SKY/WX    TMP DP  RH WIND       PRES   REMARKS
MARTINSBURG    SUNNY     58  18  21 W21G32    29.92S
PETERSBURG     SUNNY     59  17  19 W22G28    29.95F
$$


USA.gov is the U.S. government's official web portal to all federal, state and local government web resources and services.